Shishmaref, AK

8:32 PM AKDT on March 22, 2017 (GMT -0800)
New Shishmaref

Weather History for PASH - April, 2013

Change the Weather History Date:

Friday, April 19, 2013

  Actual Average Record
Temperature  
Mean Temperature 0 °F -  
Max Temperature 12 °F 19 °F 39 °F (2016)
Min Temperature -11 °F 5 °F -11 °F (2009)
Degree Days  
Heating Degree Days 64    
Moisture  
Dew Point -12 °F    
Average Humidity 60    
Maximum Humidity 100    
Minimum Humidity 4    
Precipitation  
Precipitation 0.00 in - - ()
Sea Level Pressure  
Sea Level Pressure 30.59 in    
Wind  
Wind Speed 1 mph (SSE)    
Max Wind Speed 5 mph    
Max Gust Speed -    
Visibility 6 miles    
Events      
Averages and records for this station are not official NWS values.
T = Trace of Precipitation, MM = Missing Value Source: NWS Daily Summary

Daily Weather History Graph

Daily Weather History Graph

Search for Another Location

Airport or City:

Trip Planner

Search our weather history database for the weather conditions in past years. The results will help you decide how hot, cold, wet, or windy it might be!

Date:

Astronomy

Apr. 19, 2013 Rise Set
Actual Time 7:05 AM AKDT 11:04 PM AKDT
Civil Twilight 5:58 AM AKDT 12:11 AM AKDT
Nautical Twilight 3:47 AM AKDT 2:42 AM AKDT
Astronomical Twilight Sun does not rise Sun does not rise
Moon 2:34 PM AKDT (4/19) 6:00 AM AKDT (4/19)
Length of Visible Light 18h 12m
Length of Day
15h 59m
Waxing Gibbous, 63% of the Moon is Illuminated
Apr 19
Waxing Gibbous
Apr 25
Full
May 2
Last Quarter
May 9
New
May 17
First Quarter

Hourly Weather History & Observations

Time (AKDT) Temp. Windchill Dew Point Humidity Pressure Visibility Wind Dir Wind Speed Gust Speed Precip Events Conditions
12:16 AM -0.4 °F - -9.4 °F 66% 30.63 in 0.5 mi Calm Calm - N/A   Unknown
12:36 AM -0.4 °F - -0.4 °F 100% 30.63 in 0.5 mi Calm Calm - N/A   Unknown
12:56 AM -2.2 °F - -7.6 °F 78% 30.64 in 0.5 mi Calm Calm - N/A   Overcast
1:16 AM -7.6 °F - -14.8 °F 71% 30.64 in 0.5 mi Calm Calm - N/A   Overcast
1:36 AM -5.8 °F - -5.8 °F 100% 30.64 in 0.5 mi Calm Calm - N/A   Overcast
1:56 AM -5.8 °F - - N/A% 30.64 in 0.5 mi Calm Calm - N/A   Overcast
2:16 AM -9.4 °F - - N/A% 30.63 in 0.5 mi Calm Calm - N/A   Overcast
2:56 AM -9.4 °F - - N/A% 30.63 in 0.8 mi Calm Calm - N/A   Overcast
3:16 AM -11.2 °F - -27.4 °F 45% 30.64 in 0.8 mi Calm Calm - N/A   Overcast
3:36 AM -9.4 °F - -25.6 °F 45% 30.64 in 0.8 mi Calm Calm - N/A   Overcast
3:56 AM -9.4 °F - -20.2 °F 59% 30.64 in 1.0 mi Calm Calm - N/A   Overcast
4:16 AM -9.4 °F - -20.2 °F 59% 30.64 in 0.5 mi Calm Calm - N/A   Overcast
4:36 AM -11.2 °F - -23.8 °F 54% 30.64 in 0.5 mi Calm Calm - N/A   Overcast
4:56 AM -11.2 °F -20.6 °F -20.2 °F 64% 30.63 in 0.2 mi SW 3.5 mph - N/A   Overcast
5:16 AM -11.2 °F - -20.2 °F 64% 30.63 in 0.5 mi Calm Calm - N/A   Overcast
5:36 AM -9.4 °F - -16.6 °F 71% 30.63 in 1.0 mi Calm Calm - N/A   Overcast
5:56 AM -9.4 °F - -18.4 °F 65% 30.63 in 0.5 mi Calm Calm - N/A   Overcast
6:16 AM -11.2 °F - -20.2 °F 64% 30.63 in 0.8 mi Calm Calm - N/A   Overcast
6:36 AM -11.2 °F - -20.2 °F 64% 30.63 in 0.2 mi Calm Calm - N/A   Overcast
6:56 AM -11.2 °F - -18.4 °F 70% 30.63 in 0.2 mi Calm Calm - N/A   Overcast
7:16 AM -9.4 °F - -18.4 °F 65% 30.63 in 0.2 mi Calm Calm - N/A   Overcast
7:36 AM -11.2 °F - -20.2 °F 64% 30.63 in 0.2 mi Calm Calm - N/A   Overcast
7:56 AM -11.2 °F - -16.6 °F 77% 30.63 in 0.2 mi Calm Calm - N/A   Overcast
8:16 AM -11.2 °F - -20.2 °F 64% 30.63 in 0.5 mi Calm Calm - N/A   Overcast
8:36 AM -9.4 °F - -11.2 °F 92% 30.63 in 0.5 mi Calm Calm - N/A   Overcast
8:56 AM -9.4 °F - -23.8 °F 49% 30.62 in 0.5 mi Calm Calm - N/A   Overcast
9:16 AM -9.4 °F - -77.8 °F 4% 30.62 in 0.5 mi Calm Calm - N/A   Overcast
9:36 AM -7.6 °F - - N/A% 30.62 in 0.8 mi Calm Calm - N/A   Overcast
9:56 AM -7.6 °F - - N/A% 30.62 in 1.2 mi Calm Calm - N/A   Overcast
10:16 AM -5.8 °F - -29.2 °F 32% 30.62 in 3.0 mi Calm Calm - N/A   Overcast
10:36 AM -5.8 °F - -27.4 °F 35% 30.62 in 5.0 mi Calm Calm - N/A   Overcast
10:56 AM -2.2 °F - -23.8 °F 35% 30.62 in 10.0 mi Calm Calm - N/A   Overcast
11:16 AM -2.2 °F - -20.2 °F 42% 30.62 in 10.0 mi Calm Calm - N/A   Partly Cloudy
11:36 AM -2.2 °F - -20.2 °F 42% 30.62 in 10.0 mi Calm Calm - N/A   Clear
11:56 AM -0.4 °F - -16.6 °F 46% 30.62 in 10.0 mi Calm Calm - N/A   Clear
12:16 PM 1.4 °F - -13.0 °F 51% 30.62 in 9.0 mi Calm Calm - N/A   Clear
12:36 PM 1.4 °F - -9.4 °F 61% 30.61 in 10.0 mi Calm Calm - N/A   Clear
12:56 PM 1.4 °F -8.3 °F -5.8 °F 72% 30.61 in 10.0 mi East 4.6 mph - N/A   Clear
1:16 PM 1.4 °F -8.3 °F -5.8 °F 72% 30.61 in 10.0 mi East 4.6 mph - N/A   Clear
1:36 PM 3.2 °F -6.2 °F -5.8 °F 66% 30.60 in 10.0 mi East 4.6 mph - N/A   Clear
1:56 PM 3.2 °F -4.2 °F -0.4 °F 85% 30.60 in 10.0 mi ESE 3.5 mph - N/A   Clear
2:16 PM 5.0 °F -2.1 °F -22.0 °F 28% 30.60 in 10.0 mi ESE 3.5 mph - N/A   Clear
2:36 PM 5.0 °F -2.1 °F -20.2 °F 30% 30.59 in 10.0 mi ESE 3.5 mph - N/A   Clear
2:56 PM 6.8 °F - -14.8 °F 37% 30.59 in 10.0 mi Calm Calm - N/A   Clear
3:16 PM 6.8 °F - -9.4 °F 48% 30.59 in 10.0 mi Calm Calm - N/A   Clear
3:36 PM 8.6 °F - -4.0 °F 57% 30.59 in 10.0 mi Calm Calm - N/A   Clear
3:56 PM 8.6 °F - - N/A% 30.58 in 10.0 mi Calm Calm - N/A   Clear
4:16 PM 8.6 °F - -16.6 °F 31% 30.58 in 10.0 mi Calm Calm - N/A   Clear
4:36 PM 8.6 °F - -16.6 °F 31% 30.57 in 10.0 mi Calm Calm - N/A   Clear
4:56 PM 8.6 °F - -7.6 °F 48% 30.57 in 10.0 mi Calm Calm - N/A   Clear
5:16 PM 10.4 °F - -2.2 °F 57% 30.57 in 10.0 mi Calm Calm - N/A   Clear
5:36 PM 10.4 °F - -0.4 °F 62% 30.56 in 10.0 mi Calm Calm - N/A   Clear
5:56 PM 10.4 °F - -18.4 °F 26% 30.56 in 10.0 mi Calm Calm - N/A   Clear
6:16 PM 10.4 °F - -11.2 °F 37% 30.56 in 10.0 mi Calm Calm - N/A   Clear
6:36 PM 10.4 °F - -11.2 °F 37% 30.56 in 10.0 mi Calm Calm - N/A   Clear
6:56 PM 10.4 °F - -4.0 °F 52% 30.55 in 10.0 mi Calm Calm - N/A   Clear
7:16 PM 10.4 °F - 1.4 °F 67% 30.54 in 10.0 mi Calm Calm - N/A   Clear
7:36 PM 12.2 °F - -16.6 °F 27% 30.54 in 10.0 mi Calm Calm - N/A   Clear
7:56 PM 12.2 °F - 3.2 °F 67% 30.54 in 10.0 mi Calm Calm - N/A   Clear
8:16 PM 12.2 °F - 6.8 °F 79% 30.53 in 10.0 mi Calm Calm - N/A   Clear
8:36 PM 10.4 °F - 3.2 °F 73% 30.53 in 10.0 mi Calm Calm - N/A   Clear
8:56 PM 10.4 °F - 6.8 °F 85% 30.53 in 10.0 mi Calm Calm - N/A   Clear
9:16 PM 10.4 °F - 6.8 °F 85% 30.52 in 10.0 mi Calm Calm - N/A   Clear
9:36 PM 10.4 °F 4.0 °F 5.0 °F 79% 30.52 in 10.0 mi South 3.5 mph - N/A   Clear
9:56 PM 10.4 °F 4.0 °F 6.8 °F 85% 30.52 in 10.0 mi South 3.5 mph - N/A   Clear
10:16 PM 8.6 °F 0.1 °F 3.2 °F 79% 30.52 in 10.0 mi South 4.6 mph - N/A   Clear
10:36 PM 8.6 °F 0.1 °F 3.2 °F 79% 30.51 in 10.0 mi South 4.6 mph - N/A   Partly Cloudy
10:56 PM 8.6 °F 2.0 °F 5.0 °F 85% 30.51 in 10.0 mi South 3.5 mph - N/A   Partly Cloudy
11:16 PM 8.6 °F 0.1 °F 3.2 °F 79% 30.51 in 10.0 mi SSE 4.6 mph - N/A   Partly Cloudy
11:36 PM 8.6 °F 0.1 °F 3.2 °F 79% 30.51 in 10.0 mi SSE 4.6 mph - N/A   Scattered Clouds
11:56 PM 6.8 °F -2.0 °F 3.2 °F 85% 30.50 in 10.0 mi South 4.6 mph - N/A   Clear